Weather observations for the past three days for
Topeka, Forbes Field
Imperial (Metric)
Date Time (cdt) Wind (mph) Vis. (mi.) Weather Sky Cond. Temperature (ºF) Relative Humidity Wind Chill (°F) Heat Index (°F) Pressure Precipitation (in)
Air Dwpt 6 hour altimeter (in) sea level (mb) 1 hr 3 hr 6 hr
Max. Min.
01 14:53 SW 12 10.00 Fair CLR 100 61 28% 101 29.95 1012.9
01 13:53 S 15 10.00 Fair CLR 99 64 32% 102 29.97 1013.3
01 12:53 SW 13 G 24 10.00 Fair CLR 96.1 64 96.1 71.1 35% 98 29.99 1014.1
01 11:53 SW 14 10.00 Fair CLR 93 63 37% 94 30.01 1014.7
01 10:53 S 13 10.00 A Few Clouds FEW100 91 63 39% 92 30.01 1014.7
01 09:53 S 13 10.00 Partly Cloudy SCT100 87.1 62.1 43% 88 30.01 1014.8
01 08:53 S 12 10.00 A Few Clouds FEW100 81 63 54% 82 30.02 1015.2
01 07:53 S 8 9.00 Fair CLR 75 63 66% 77 30.01 1014.9
01 06:53 S 6 10.00 Fair CLR 71.1 62.1 77 70 73% 30 1014.5
01 05:53 S 6 10.00 Fair CLR 72 62.1 71% 29.99 1014.1
01 04:53 S 8 10.00 Fair CLR 72 62.1 71% 29.98 1013.6
01 03:53 S 7 10.00 Fair CLR 75.9 62.1 62% 78 29.97 1013.3
01 02:53 S 8 10.00 Fair CLR 75.9 62.1 62% 78 29.96 1013.2
01 01:53 S 5 10.00 Fair CLR 75 62.1 64% 77 29.97 1013.4
01 00:53 S 7 10.00 Fair CLR 77 62.1 96.1 77 60% 79 29.97 1013.5
31 23:53 S 5 10.00 Fair CLR 78.1 62.1 58% 80 29.97 1013.6
31 22:53 S 8 10.00 Fair CLR 80.1 62.1 54% 81 29.96 1013.0
31 21:53 S 6 10.00 Fair CLR 79 64 60% 81 29.95 1012.9
31 20:53 SE 7 10.00 Fair CLR 82 66 58% 84 29.93 1012.2
31 18:53 S 7 10.00 Fair CLR 96.1 64 100.9 95 35% 98 29.92 1011.6
31 17:53 S 14 G 20 10.00 Fair CLR 100 63 30% 102 29.91 1011.6
31 16:53 S 10 10.00 Fair CLR 100 64 31% 103 29.92 1011.6
31 15:53 S 12 G 22 10.00 Fair CLR 100 64 31% 103 29.93 1012.0
31 14:53 SW 14 G 23 10.00 Fair CLR 98.1 64.9 34% 101 29.94 1012.4
31 13:53 SW 16 G 23 10.00 Fair CLR 98.1 64.9 34% 101 29.95 1012.6
31 12:53 SW 16 10.00 Fair CLR 95 64.9 96.1 75 37% 98 29.96 1013.0
31 11:53 SW 13 10.00 Fair CLR 91.9 64.9 41% 94 29.97 1013.3
31 10:53 SW 13 10.00 Fair CLR 89.1 64 43% 90 29.98 1013.7
31 09:53 SW 9 10.00 Fair CLR 84 64 51% 85 29.98 1013.7
31 08:53 S 13 10.00 Fair CLR 81 63 54% 82 29.99 1014.1
31 07:53 S 12 10.00 Mostly Cloudy BKN120 75.9 62.1 62% 78 29.97 1013.7
31 06:53 S 9 10.00 Fair CLR 75 62.1 84.9 75 64% 77 29.95 1012.8
31 05:53 S 8 10.00 Fair CLR 75.9 62.1 62% 78 29.94 1012.5
31 04:53 S 10 10.00 Fair CLR 78.1 62.1 58% 80 29.92 1011.6
31 03:53 S 10 10.00 Fair CLR 80.1 61 52% 81 29.9 1011.0
31 02:53 S 9 10.00 NULL NULL 81 61 51% 82 29.89 1010.6
31 01:53 S 12 10.00 Fair CLR 82.9 61 48% 83 29.9 1010.8
31 00:53 S 12 10.00 Fair CLR 84.9 61 97 84 45% 85 29.87 1010.1
30 23:53 S 13 10.00 Fair CLR 84.9 61 45% 85 29.86 1009.7
30 22:53 S 13 10.00 Fair CLR 84.9 61 45% 85 29.86 1009.7
30 21:53 S 14 10.00 Fair CLR 87.1 61 42% 87 29.85 1009.4
30 20:53 S 13 10.00 Fair CLR 87.1 63 45% 88 29.84 1009.1
30 19:53 S 9 10.00 Fair CLR 90 63 41% 91 29.83 1008.8
30 18:53 S 13 10.00 Fair CLR 97 62.1 102 95 32% 98 29.83 1008.6
30 17:53 S 18 G 25 10.00 Fair CLR 100 60.1 27% 101 29.82 1008.2
30 16:53 S 21 G 29 10.00 Fair and Breezy CLR 102 61 26% 103 29.81 1008.0
30 15:53 S 18 G 31 10.00 Fair CLR 100.9 63 29% 103 29.83 1008.6
30 14:53 S 17 G 32 10.00 Fair CLR 100 64.9 32% 103 29.85 1009.1
30 13:53 S 18 G 28 10.00 Fair CLR 98.1 66 35% 102 29.86 1009.7
30 12:53 SW 18 G 32 10.00 Fair CLR 95 66 95 75.9 39% 98 29.89 1010.5
30 11:53 S 17 G 28 10.00 Fair CLR 91.9 64.9 41% 94 29.9 1011.1
30 10:53 S 18 G 26 10.00 Fair CLR 88 64.9 46% 90 29.9 1010.9
30 09:53 SW 16 G 30 10.00 Fair CLR 84 63 49% 85 29.89 1010.7
30 08:53 S 17 G 24 10.00 Fair CLR 80.1 62.1 54% 81 29.9 1011.2
30 07:53 S 15 10.00 Fair CLR 79 61 54% 80 29.91 1011.6
30 06:53 S 13 10.00 Fair CLR 75.9 60.1 82.9 75.9 58% 78 29.91 1011.5
30 05:53 S 13 10.00 Fair CLR 78.1 59 52% 79 29.91 1011.5
30 04:53 S 14 10.00 Fair CLR 79 59 50% 80 29.9 1011.0
30 03:53 S 13 10.00 Fair CLR 80.1 59 49% 81 29.9 1010.9
30 02:53 S 10 G 21 10.00 Fair CLR 81 59 47% 81 29.9 1011.0
30 01:53 S 12 G 23 10.00 Fair CLR 82.9 60.1 46% 83 29.9 1010.8
30 00:53 S 10 10.00 Fair CLR 82 61 93 81 49% 83 29.9 1011.2
29 23:53 S 10 10.00 Fair CLR 81 63 54% 82 29.9 1011.0
29 22:53 S 13 10.00 Fair CLR 82.9 64 53% 84 29.91 1011.4
29 21:53 S 13 10.00 Fair CLR 84 64 51% 85 29.9 1011.1
29 20:53 S 10 10.00 Fair CLR 84 64.9 53% 86 29.88 1010.5
29 19:53 SE 10 10.00 Fair CLR 87.1 64.9 48% 89 29.86 1010.1
29 18:53 S 13 10.00 Fair CLR 93 64.9 99 91.9 40% 95 29.87 1010.2
29 17:53 S 17 G 25 10.00 Fair CLR 97 63 33% 99 29.87 1010.1
29 16:53 S 15 G 30 10.00 Fair CLR 98.1 62.1 31% 99 29.88 1010.4
29 15:53 S 17 G 28 10.00 Fair CLR 98.1 62.1 31% 99 29.89 1010.8
Date Time (cdt) Wind (mph) Vis. (mi.) Weather Sky Cond. Air Dwpt Max. Min. Relative Humidity Wind Chill (°F) Heat Index (°F) altimeter (in) sea level (mb) 1 hr 3 hr 6 hr
6 hour
Temperature (ºF) Pressure Precipitation (in)